This demonstration page uses our WeatherBlox Daily Observations layout. Learn more.

Left ArrowRight Arrow

44.89941, -97.11507

Hourly Observations for February 3, 2021

Temp ( °F °C ) Dew Point ( °F °C ) Humidity (%) Winds ( mph kmh ) Pressure ( in mb ) Visibility ( mi km ) Precip ( " mm )
12:16 am 00:16 Cloudy with Light Snow 23 -5 23 -5 100 100 S 15 24 30.07 1018 2 3 0.00 0.00
12:44 am 00:44 Cloudy with Light Snow 23 -5 22 -5.6 96 96 S 16 26 30.06 1018 2 3 0.00 0.00
12:53 am 00:53 Cloudy with Mist and Fog 23 -5 22 -5.6 96 96 S 15 24 30.00 1016 3 4 0.00 0.00
1:09 am 01:09 Cloudy with Mist and Fog 23 -5 22 -5.6 96 96 S 13 20 30.04 1017 2 3 0.00 0.00
1:31 am 01:31 Cloudy with Mist and Fog 23 -5 22 -5.6 96 96 S 14 22 30.04 1017 3 4 0.00 0.00
1:53 am 01:53 Cloudy with Mist and Fog 23 -5 22 -5.6 96 96 S 15 24 29.99 1016 3 4 0.00 0.00
2:00 am 02:00 Cloudy with Mist and Fog 23 -5 22 -5.6 96 96 S 15 24 30.03 1017 3 5 0.00 0.00
2:38 am 02:38 Cloudy with Light Snow 23 -5 22 -5.6 96 96 S 16 26 30.02 1016 2 3 0.00 0.00
2:53 am 02:53 Cloudy with Mist and Fog 23 -5 22 -5.6 96 96 S 13 20 29.96 1015 3 4 0.00 0.00
3:00 am 03:00 Cloudy with Mist and Fog 23 -5 22 -5.6 96 96 S 15 24 30.00 1016 3 5 0.00 0.00
3:07 am 03:07 Cloudy with Mist and Fog 23 -5 23 -5 100 100 S 13 20 30.00 1016 3 4 0.00 0.00
3:32 am 03:32 Cloudy with Mist and Fog 24 -4.4 23 -5 96 96 S 15 24 29.97 1015 2 2 0.00 0.00
3:53 am 03:53 Cloudy with Mist and Fog 24 -4.4 23 -5 96 96 S 15 24 29.92 1013 2 3 0.00 0.00
4:53 am 04:53 Cloudy with Mist and Fog 24 -4.4 24 -4.4 100 100 S 14 22 29.90 1013 2 3 0.00 0.00
5:19 am 05:19 Cloudy with Mist and Fog 24 -4.4 24 -4.4 100 100 S 14 22 29.93 1014 2 2 0.00 0.00
5:36 am 05:36 Cloudy with Mist and Fog 24 -4.4 24 -4.4 100 100 S 15 24 29.92 1013 2 3 0.00 0.00
5:53 am 05:53 Cloudy with Mist and Fog 24 -4.4 23 -5 96 96 S 15 24 29.87 1012 3 4 0.00 0.00
6:04 am 06:04 Cloudy with Mist and Fog 24 -4.4 23 -5 96 96 SSE 16 26 29.91 1013 1 2 0.00 0.00
6:35 am 06:35 Cloudy with Light Snow 24 -4.4 24 -4.4 100 100 S 12 19 29.90 1013 2 2 0.00 0.00
6:43 am 06:43 Cloudy with Light Snow 23 -5 23 -5 100 100 S 18 30 29.90 1012 1 2 0.00 0.00
6:53 am 06:53 Cloudy with Mist and Fog 23 -5 23 -5 100 100 S 21 33 29.85 1011 1 2 0.00 0.00
7:25 am 07:25 Cloudy with Mist and Fog 23 -5 22 -5.6 96 96 S 16 26 29.88 1012 1 1 0.00 0.00
7:38 am 07:38 Cloudy with Mist and Fog 23 -5 23 -5 100 100 S 14 22 29.88 1012 1 2 0.00 0.00
7:53 am 07:53 Cloudy with Mist and Fog 22 -5.6 22 -5.6 100 100 S 18 30 29.83 1010 1 1 0.00 0.00
8:53 am 08:53 Cloudy with Freezing Fog 22 -5.6 21 -6.1 96 96 S 18 30 29.81 1010 1 1 0.00 0.00
9:53 am 09:53 Cloudy with Freezing Fog 22 -5.6 22 -5.6 100 100 S 15 24 29.78 1009 1 1 0.00 0.00
10:53 am 10:53 Cloudy with Mist and Fog 23 -5 22 -5.6 96 96 S 17 28 29.73 1007 1 1 0.00 0.00
11:53 am 11:53 Cloudy with Mist and Fog 25 -3.9 25 -3.9 100 100 S 13 20 29.71 1006 1 2 0.00 0.00
12:05 pm 12:05 Cloudy with Mist and Fog 25 -3.9 24 -4.4 96 96 S 12 19 29.74 1007 2 3 0.00 0.00
12:40 pm 12:40 Cloudy with Mist and Fog 26 -3.3 25 -3.9 96 96 S 18 30 29.70 1006 2 3 0.00 0.00
12:53 pm 12:53 Cloudy with Mist and Fog 26 -3.3 25 -3.9 96 96 SSE 16 26 29.66 1004 2 3 0.00 0.00
1:03 pm 13:03 Cloudy with Mist and Fog 26 -3.3 25 -3.9 96 96 SSE 15 24 29.69 1005 2 3 0.00 0.00
1:12 pm 13:12 Cloudy with Mist and Fog 26 -3.3 26 -3.3 100 100 SSE 15 24 29.68 1005 3 4 0.00 0.00
1:43 pm 13:43 Cloudy with Mist and Fog 27 -2.8 26 -3.3 96 96 SSE 16 26 29.65 1004 3 5 0.00 0.00
1:53 pm 13:53 Cloudy with Mist and Fog 27 -2.8 26 -3.3 96 96 S 15 24 29.62 1003 3 5 0.00 0.00
2:08 pm 14:08 Cloudy with Mist and Fog 27 -2.8 26 -3.3 96 96 S 16 26 29.65 1004 3 4 0.00 0.00
2:53 pm 14:53 Cloudy with Mist and Fog 28 -2.2 27 -2.8 96 96 SSE 16 26 29.57 1002 3 4 0.00 0.00
3:37 pm 15:37 Cloudy with Mist and Fog 30 -1.1 29 -1.7 96 96 S 12 19 29.61 1003 3 5 0.00 0.00
3:53 pm 15:53 Cloudy with Mist and Fog 30 -1.1 29 -1.7 96 96 S 8 13 29.58 1002 3 5 0.00 0.00
4:53 pm 16:53 Cloudy with Mist and Fog 30 -1.1 29 -1.7 96 96 WSW 10 17 29.60 1003 4 6 0.00 0.00
5:53 pm 17:53 Cloudy with Mist and Fog 30 -1.1 29 -1.7 96 96 WNW 12 19 29.62 1003 5 8 0.00 0.00
6:19 pm 18:19 Cloudy with Mist and Fog 29 -1.7 29 -1.7 100 100 W 13 20 29.66 1004 3 5 0.00 0.00
6:53 pm 18:53 Cloudy with Mist and Fog 29 -1.7 28 -2.2 96 96 WNW 13 20 29.63 1004 5 8 0.00 0.00
7:06 pm 19:06 Cloudy 29 -1.7 28 -2.2 96 96 WNW 13 20 29.66 1004 8 13 0.00 0.00
7:53 pm 19:53 Cloudy 30 -1.1 28 -2.2 92 92 WNW 13 20 29.65 1004 8 13 0.00 0.00
8:53 pm 20:53 Cloudy 29 -1.7 27 -2.8 92 92 NW 18 30 29.65 1004 10 16 0.00 0.00
9:13 pm 21:13 Cloudy 29 -1.7 26 -3.3 89 89 NW 20 31 29.69 1005 9 14 0.00 0.00
9:33 pm 21:33 Cloudy with Mist and Fog 28 -2.2 26 -3.3 92 92 NW 21 33 29.70 1006 5 8 0.00 0.00
9:53 pm 21:53 Cloudy with Mist and Fog 26 -3.3 26 -3.3 100 100 NW 21 33 29.69 1006 3 4 0.00 0.00
10:10 pm 22:10 Cloudy with Mist and Fog 26 -3.3 24 -4.4 92 92 NW 21 33 29.76 1008 3 5 0.00 0.00
10:17 pm 22:17 Cloudy with Mist and Fog 26 -3.3 24 -4.4 92 92 NW 21 33 29.76 1008 3 5 0.00 0.00
10:53 pm 22:53 Windy with Snow Likely 24 -4.4 22 -5.6 91 91 NNW 21 33 29.72 1007 4 6 0.00 0.00
11:02 pm 23:02 Windy with Snow Likely 24 -4.4 22 -5.6 91 91 NW 21 33 29.76 1008 2 3 0.00 0.00
11:24 pm 23:24 Cloudy with Light Snow 23 -5 21 -6.1 92 92 NNW 18 30 29.76 1008 3 4 0.00 0.00
11:34 pm 23:34 Windy with Snow Likely 23 -5 21 -6.1 92 92 NW 23 37 29.76 1008 3 5 0.00 0.00
11:53 pm 23:53 Cloudy 22 -5.6 19 -7.2 89 89 NNW 22 35 29.71 1006 8 13 0.00 0.00

Powered by AerisWeather